Location: Coupvray
(48.8929°N, 2.7967°E)
Time: 04:36:33
(UTC+00:00)

Cosmos 2016 Rocket - Pass Details

Date: 14 July 2020
Orbit: 948 x 999 km, 83.0° (Epoch: 06 August)

Event Time Altitude Azimuth Distance (km) Brightness Sun altitude
Exits shadow 01:53:41 20° 196° (SSW) 2,044 5.1 -14.7°
Maximum altitude 01:58:04 76° 280° (W) 997 4.0 -14.3°
Drops below altitude 10° 02:04:20 10° 7° (N) 2,733 7.4 -13.8°
Sets 02:06:53 0° 9° (N) 3,692 8.4 -13.6°
